FW6291 Weather Reports


time (UTC)temp
C
wind
direction
speed
KPH
gust
KPH
rain 1hr
cm
rain 24hr
cm
rain mn
cm
humidity
%
barometer
mb
20260902102454 16 120 0.0 0.0 0.00 0.00 0.00 82 1016.4
20260902101453 16 127 0.0 0.0 0.00 0.00 0.00 83 1016.5
20260902100452 16 80 0.0 0.0 0.00 0.00 0.00 82 1016.5
20260902095451 16 80 0.0 0.0 0.00 0.00 0.00 81 1016.5
20260902094450 16 80 0.0 0.0 0.00 0.00 0.00 80 1016.6
20260902093448 16 80 0.0 0.0 0.00 0.00 0.00 80 1016.5
20260902092448 16 80 0.0 0.0 0.00 0.00 0.00 80 1016.5
20260902091446 16 80 0.0 0.0 0.00 0.00 0.00 80 1016.4
20260902090445 17 80 0.0 0.0 0.00 0.00 0.00 79 1016.4
20260902084443 17 80 0.0 0.0 0.00 0.00 0.00 78 1016.6
20260902083442 17 80 0.0 0.0 0.00 0.00 0.00 78 1016.6
20260902081440 17 86 0.0 0.0 0.00 0.00 0.00 78 1016.5
20260902080439 17 86 0.0 0.0 0.00 0.00 0.00 78 1016.5
20260902075438 17 86 0.0 0.0 0.00 0.00 0.00 78 1016.5
20260902074437 17 85 0.0 0.0 0.00 0.00 0.00 75 1016.5
20260902073437 17 85 0.0 0.0 0.00 0.00 0.00 75 1016.5
20260902072436 17 85 0.0 0.0 0.00 0.00 0.00 74 1016.3
20260902071434 17 85 0.0 0.0 0.00 0.00 0.00 74 1016.1
20260902070433 18 85 0.0 4.8 0.00 0.00 0.00 74 1016.1
20260902065432 18 89 0.0 0.0 0.00 0.00 0.00 73 1016.0
20260902064431 18 90 0.0 1.6 0.00 0.00 0.00 73 1016.0
20260902063430 17 68 0.0 0.0 0.00 0.00 0.00 72 1016.0
20260902062429 17 101 0.0 0.0 0.00 0.00 0.00 66 1015.9
20260902061428 17 101 0.0 0.0 0.00 0.00 0.00 64 1015.8
20260902060427 17 101 0.0 0.0 0.00 0.00 0.00 63 1015.7
20260902055426 17 102 0.0 0.0 0.00 0.00 0.00 65 1015.7
20260902054425 17 101 0.0 0.0 0.00 0.00 0.00 61 1015.7
20260902053424 18 102 0.0 0.0 0.00 0.00 0.00 61 1015.7
20260902052423 18 101 0.0 0.0 0.00 0.00 0.00 66 1015.7
20260902051422 18 101 0.0 0.0 0.00 0.00 0.00 72 1015.7
20260902050421 19 101 0.0 1.6 0.00 0.00 0.00 73 1015.5
20260902045420 19 108 0.0 0.0 0.00 0.00 0.00 72 1015.4
20260902044419 19 101 0.0 0.0 0.00 0.00 0.00 69 1015.4
20260902043418 19 101 0.0 0.0 0.00 0.00 0.00 64 1015.4
20260902042417 19 101 0.0 0.0 0.00 0.00 0.00 67 1015.2
20260902041416 20 101 0.0 0.0 0.00 0.00 0.00 64 1015.0
20260902040415 20 101 0.0 0.0 0.00 0.00 0.00 60 1015.0
20260902035413 20 101 0.0 0.0 0.00 0.00 0.00 64 1014.9
20260902034413 21 98 0.0 0.0 0.00 0.00 0.00 65 1014.8
20260902032410 21 118 0.0 0.0 0.00 0.00 0.00 66 1014.6
20260902031410 21 106 0.0 1.6 0.00 0.00 0.00 66 1014.6
20260902030409 22 131 0.0 1.6 0.00 0.00 0.00 65 1014.5
20260902025407 22 123 0.0 1.6 0.00 0.00 0.00 63 1014.4
20260902024407 22 108 0.0 6.4 0.00 0.00 0.00 61 1014.2
20260902023405 23 93 0.0 1.6 0.00 0.00 0.00 58 1014.2
20260902022404 23 138 1.6 1.6 0.00 0.00 0.00 54 1014.0
20260902021404 23 280 0.0 1.6 0.00 0.00 0.00 51 1014.1
20260902020402 24 122 0.0 8.0 0.00 0.00 0.00 46 1014.0
20260902015401 25 142 3.2 8.0 0.00 0.00 0.00 45 1014.1
20260902014400 25 126 0.0 11.3 0.00 0.00 0.00 44 1014.1
20260902013359 26 127 3.2 6.4 0.00 0.00 0.00 40 1014.1
20260902012358 26 119 1.6 8.0 0.00 0.00 0.00 36 1014.1
20260902011357 27 95 0.0 4.8 0.00 0.00 0.00 35 1014.1
20260902010356 28 78 0.0 3.2 0.00 0.00 0.00 34 1014.2
20260902005355 28 123 0.0 3.2 0.00 0.00 0.00 31 1014.3
20260902004354 28 148 0.0 6.4 0.00 0.00 0.00 30 1014.2
20260902003353 29 97 0.0 6.4 0.00 0.00 0.00 28 1014.3
20260902002352 30 114 0.0 6.4 0.00 0.00 0.00 25 1014.3
20260902000352 30 106 1.6 4.8 0.00 0.00 0.00 31 1014.4
20260901235349 30 100 0.0 3.2 0.00 0.00 0.00 32 1014.4
20260901234348 30 210 0.0 3.2 0.00 0.00 0.00 31 1014.4
20260901233347 30 114 0.0 4.8 0.00 0.00 0.00 31 1014.4
20260901232346 30 91 0.0 3.2 0.00 0.00 0.00 30 1014.4
20260901231345 30 123 0.0 4.8 0.00 0.00 0.00 29 1014.4
20260901230345 30 179 0.0 4.8 0.00 0.00 0.00 29 1014.5
20260901225343 31 191 0.0 9.7 0.00 0.00 0.00 31 1014.6
20260901224343 31 91 0.0 3.2 0.00 0.00 0.00 33 1014.6
20260901223341 31 83 0.0 6.4 0.00 0.00 0.00 34 1014.6
20260901222340 31 159 0.0 6.4 0.00 0.00 0.00 33 1014.6
20260901221339 31 158 0.0 4.8 0.00 0.00 0.00 31 1014.6
20260901215337 31 115 0.0 3.2 0.00 0.00 0.00 35 1014.8
20260901214336 31 32 0.0 8.0 0.00 0.00 0.00 35 1014.9
20260901213335 31 133 0.0 1.6 0.00 0.00 0.00 37 1014.9
20260901212334 31 75 0.0 6.4 0.00 0.00 0.00 38 1015.0
20260901211333 30 165 0.0 8.0 0.00 0.00 0.00 41 1015.1
20260901210332 30 210 0.0 3.2 0.00 0.00 0.00 40 1015.1
20260901205331 30 127 0.0 6.4 0.00 0.00 0.00 41 1015.1
20260901204330 30 133 0.0 8.0 0.00 0.00 0.00 40 1015.2
20260901203329 30 150 1.6 4.8 0.00 0.00 0.00 39 1015.2
20260901202328 30 137 0.0 11.3 0.00 0.00 0.00 42 1015.2
20260901201327 29 152 0.0 4.8 0.00 0.00 0.00 41 1015.3
20260901200326 29 281 0.0 6.4 0.00 0.00 0.00 43 1015.4
20260901195325 28 210 0.0 8.0 0.00 0.00 0.00 44 1015.6
20260901194324 28 92 0.0 4.8 0.00 0.00 0.00 43 1015.8
20260901193323 28 113 3.2 8.0 0.00 0.00 0.00 46 1015.9
20260901192322 28 163 1.6 8.0 0.00 0.00 0.00 49 1015.9
20260901191321 28 145 0.0 8.0 0.00 0.00 0.00 50 1016.0
20260901190320 27 238 0.0 6.4 0.00 0.00 0.00 53 1016.0
20260901182316 27 224 0.0 8.0 0.00 0.00 0.00 55 1016.3
20260901181315 27 131 0.0 4.8 0.00 0.00 0.00 57 1016.4
20260901180314 26 216 0.0 4.8 0.00 0.00 0.00 59 1016.4
20260901175313 26 226 0.0 4.8 0.00 0.00 0.00 60 1016.4
20260901174312 26 257 1.6 1.6 0.00 0.00 0.00 61 1016.5
20260901172310 25 218 0.0 6.4 0.00 0.00 0.00 63 1016.3
20260901171309 24 104 6.4 6.4 0.00 0.00 0.00 64 1016.1
20260901165307 24 110 0.0 6.4 0.00 0.00 0.00 64 1016.2
20260901164306 23 160 0.0 4.8 0.00 0.00 0.00 67 1016.2
20260901163305 23 243 0.0 3.2 0.00 0.00 0.00 68 1016.3
20260901162306 23 161 0.0 3.2 0.00 0.00 0.00 69 1016.4
20260901161303 23 230 0.0 1.6 0.00 0.00 0.00 69 1016.4
20260901160302 23 124 0.0 0.0 0.00 0.00 0.00 69 1016.3
20260901155301 23 108 0.0 0.0 0.00 0.00 0.00 71 1016.3
20260901152258 21 90 0.0 0.0 0.00 0.00 0.00 73 1016.3
20260901151257 21 101 0.0 0.0 0.00 0.00 0.00 74 1016.1
20260901150256 19 98 0.0 1.6 0.00 0.00 0.00 79 1015.9
20260901144254 17 96 0.0 0.0 0.00 0.00 0.00 93 1015.6
20260901143253 15 96 0.0 0.0 0.00 0.00 0.00 92 1015.5
20260901142252 16 101 0.0 0.0 0.00 0.00 0.00 89 1015.4
20260901141252 16 101 0.0 0.0 0.00 0.00 0.00 89 1015.5
20260901135249 16 101 0.0 0.0 0.00 0.00 0.00 89 1015.3
20260901134249 16 101 0.0 0.0 0.00 0.00 0.00 89 1015.2
20260901133248 16 101 0.0 0.0 0.00 0.00 0.00 89 1015.1
20260901132246 16 101 0.0 0.0 0.00 0.00 0.00 89 1015.1
20260901131245 16 101 0.0 0.0 0.00 0.00 0.00 89 1015.1
20260901130244 16 101 0.0 0.0 0.00 0.00 0.00 89 1015.0
20260901125243 16 101 0.0 0.0 0.00 0.00 0.00 89 1014.9
20260901124242 16 101 0.0 0.0 0.00 0.00 0.00 89 1014.8
20260901123241 16 101 0.0 0.0 0.00 0.00 0.00 89 1014.9
20260901121239 16 101 0.0 0.0 0.00 0.00 0.00 89 1015.0
20260901120238 16 101 0.0 0.0 0.00 0.00 0.00 89 1014.9
20260901115237 16 101 0.0 0.0 0.00 0.00 0.00 89 1014.7
20260901114237 16 101 0.0 0.0 0.00 0.00 0.00 89 1014.7
20260901112234 16 96 0.0 0.0 0.00 0.00 0.00 89 1014.6
20260901110232 16 96 0.0 0.0 0.00 0.00 0.00 89 1014.9
20260901105231 16 96 0.0 0.0 0.00 0.00 0.00 89 1014.9
20260901104230 16 96 0.0 0.0 0.00 0.00 0.00 89 1014.9
20260901103229 16 96 0.0 0.0 0.00 0.00 0.00 89 1014.9